DAL4734 KDEN-KBZN

Flight info

Callsign DAL4734
Flight time 1h 21m
Altitude 38000
Route DDRTH1 DDRTH RIW TOCUD LOSST1
Aircraft A320/M-SDE3FGHIRWY/LB1

Departure

Time 2026-05-04 22:21
Airport Denver International Airport (KDEN)

Arrival

Time 2026-05-04 23:43
Airport Bozeman Yellowstone International Airport (KBZN)
Time Latitude Longitude Altitude Speed Heading
2026-05-04 22:03 39.85446 -104.67605 5386 ft 0 kts 156°
2026-05-04 22:13 39.85448 -104.67607 5386 ft 1 kts 157°
2026-05-04 22:13 39.85465 -104.67615 5381 ft 3 kts 166°
2026-05-04 22:14 39.85484 -104.67619 5384 ft 3 kts 181°
2026-05-04 22:14 39.85504 -104.67616 5386 ft 3 kts 205°
2026-05-04 22:14 39.85514 -104.67608 5383 ft 3 kts 229°
2026-05-04 22:14 39.85522 -104.67591 5383 ft 2 kts 268°
2026-05-04 22:15 39.85523 -104.67587 5384 ft 0 kts 270°
2026-05-04 22:16 39.85523 -104.67591 5383 ft 3 kts 270°
2026-05-04 22:16 39.85523 -104.67691 5386 ft 19 kts 270°
2026-05-04 22:17 39.85595 -104.67823 5386 ft 18 kts 283°
2026-05-04 22:17 39.85599 -104.68020 5386 ft 24 kts 271°
2026-05-04 22:17 39.85601 -104.68243 5385 ft 25 kts 269°
2026-05-04 22:17 39.85584 -104.68490 5371 ft 28 kts 227°
2026-05-04 22:18 39.85430 -104.68519 5372 ft 22 kts 178°
2026-05-04 22:18 39.85284 -104.68522 5371 ft 20 kts 181°
2026-05-04 22:18 39.85205 -104.68573 5369 ft 7 kts 280°
2026-05-04 22:18 39.85205 -104.68701 5364 ft 31 kts 269°
2026-05-04 22:19 39.85198 -104.69027 5352 ft 38 kts 269°
2026-05-04 22:19 39.85202 -104.69380 5339 ft 40 kts 270°
2026-05-04 22:19 39.85203 -104.69528 5333 ft 0 kts 268°
2026-05-04 22:20 39.85204 -104.69626 5336 ft 21 kts 281°
2026-05-04 22:20 39.85286 -104.69658 5336 ft 12 kts
2026-05-04 22:20 39.85431 -104.69657 5338 ft 45 kts
2026-05-04 22:20 39.85960 -104.69651 5342 ft 105 kts
2026-05-04 22:21 39.86867 -104.69640 5337 ft 153 kts
2026-05-04 22:21 39.88008 -104.69609 5675 ft 171 kts
2026-05-04 22:21 39.89219 -104.69573 6371 ft 175 kts 355°
2026-05-04 22:21 39.90439 -104.69556 6964 ft 176 kts 356°
2026-05-04 22:22 39.91694 -104.69539 7306 ft 191 kts 357°
2026-05-04 22:22 39.93105 -104.69519 7496 ft 214 kts 359°
2026-05-04 22:22 39.94684 -104.69495 7715 ft 239 kts 358°
2026-05-04 22:22 39.96434 -104.69467 8022 ft 263 kts 358°
2026-05-04 22:23 39.98343 -104.69431 8413 ft 283 kts
2026-05-04 22:23 40.00341 -104.69384 9107 ft 290 kts
2026-05-04 22:23 40.02377 -104.69334 9747 ft 296 kts 359°
2026-05-04 22:23 40.04406 -104.69606 9886 ft 306 kts 338°
2026-05-04 22:24 40.06401 -104.70797 10206 ft 324 kts 333°
2026-05-04 22:24 40.08496 -104.71999 10635 ft 332 kts 336°
2026-05-04 22:24 40.10658 -104.73114 11323 ft 335 kts 338°
2026-05-04 22:24 40.12848 -104.74180 12136 ft 337 kts 338°
2026-05-04 22:25 40.15055 -104.75242 12923 ft 339 kts 338°
2026-05-04 22:25 40.17276 -104.76323 13679 ft 342 kts 338°
2026-05-04 22:25 40.19513 -104.77434 14322 ft 346 kts 337°
2026-05-04 22:25 40.21774 -104.78580 14969 ft 349 kts 336°
2026-05-04 22:26 40.24046 -104.79744 15627 ft 352 kts 336°
2026-05-04 22:26 40.26347 -104.80929 16279 ft 355 kts 336°
2026-05-04 22:26 40.28636 -104.82107 16923 ft 358 kts 335°
2026-05-04 22:26 40.30966 -104.83307 17568 ft 361 kts 335°
2026-05-04 22:27 40.33316 -104.84517 18191 ft 364 kts 335°
2026-05-04 22:27 40.35686 -104.85734 18740 ft 367 kts 335°
2026-05-04 22:27 40.38075 -104.86958 19285 ft 370 kts 335°
2026-05-04 22:27 40.40487 -104.88194 19847 ft 373 kts 335°
2026-05-04 22:28 40.42925 -104.89449 20385 ft 376 kts 335°
2026-05-04 22:28 40.45373 -104.90712 20920 ft 379 kts 334°
2026-05-04 22:28 40.47808 -104.91969 21438 ft 383 kts 334°
2026-05-04 22:28 40.50302 -104.93255 21955 ft 386 kts 335°
2026-05-04 22:29 40.52816 -104.94549 22500 ft 389 kts 334°
2026-05-04 22:29 40.55349 -104.95854 23033 ft 392 kts 334°
2026-05-04 22:29 40.57905 -104.97172 23522 ft 395 kts 334°
2026-05-04 22:29 40.60446 -104.98484 23991 ft 396 kts 334°
2026-05-04 22:30 40.63021 -104.99814 24417 ft 398 kts 334°
2026-05-04 22:30 40.65611 -105.01155 24887 ft 400 kts 334°
2026-05-04 22:30 40.68216 -105.02506 25281 ft 403 kts 334°
2026-05-04 22:30 40.70832 -105.03865 25670 ft 405 kts 334°
2026-05-04 22:31 40.73441 -105.05239 26042 ft 407 kts 331°
2026-05-04 22:31 40.75893 -105.07061 26403 ft 403 kts 320°
2026-05-04 22:31 40.78016 -105.09461 26775 ft 401 kts 309°
2026-05-04 22:31 40.79803 -105.12294 27108 ft 401 kts 304°
2026-05-04 22:32 40.81541 -105.15196 27463 ft 404 kts 304°
2026-05-04 22:32 40.83285 -105.18109 27830 ft 406 kts 304°
2026-05-04 22:32 40.85043 -105.21047 28194 ft 408 kts 304°
2026-05-04 22:32 40.86791 -105.23968 28553 ft 410 kts 304°
2026-05-04 22:33 40.88567 -105.26939 28905 ft 412 kts 304°
2026-05-04 22:33 40.90350 -105.29931 29235 ft 414 kts 304°
2026-05-04 22:33 40.92118 -105.32898 29552 ft 417 kts 304°
2026-05-04 22:33 40.93915 -105.35915 29896 ft 418 kts 304°
2026-05-04 22:34 40.95726 -105.38954 30185 ft 420 kts 304°
2026-05-04 22:34 40.97535 -105.41989 30469 ft 421 kts 304°
2026-05-04 22:34 40.99346 -105.45030 30782 ft 420 kts 304°
2026-05-04 22:34 41.01151 -105.48066 31127 ft 419 kts 303°
2026-05-04 22:35 41.02937 -105.51069 31613 ft 414 kts 303°
2026-05-04 22:35 41.04705 -105.54042 32159 ft 408 kts 303°
2026-05-04 22:35 41.06444 -105.56976 32712 ft 401 kts 303°
2026-05-04 22:35 41.08153 -105.59865 33273 ft 395 kts 302°
2026-05-04 22:36 41.09833 -105.62711 33839 ft 388 kts 302°
2026-05-04 22:36 41.11484 -105.65511 34281 ft 384 kts 302°
2026-05-04 22:36 41.13125 -105.68303 34614 ft 382 kts 302°
2026-05-04 22:36 41.14761 -105.71091 34913 ft 381 kts 302°
2026-05-04 22:37 41.16388 -105.73860 35211 ft 379 kts 301°
2026-05-04 22:37 41.18009 -105.76616 35500 ft 377 kts 301°
2026-05-04 22:37 41.19605 -105.79328 35774 ft 376 kts 301°
2026-05-04 22:37 41.21211 -105.82063 36045 ft 374 kts 301°
2026-05-04 22:38 41.22806 -105.84788 36325 ft 372 kts 301°
2026-05-04 22:38 41.24392 -105.87498 36612 ft 370 kts 300°
2026-05-04 22:38 41.25968 -105.90195 36895 ft 369 kts 300°
2026-05-04 22:38 41.27539 -105.92882 37143 ft 367 kts 300°
2026-05-04 22:39 41.29102 -105.95557 37330 ft 366 kts 300°
2026-05-04 22:39 41.30665 -105.98237 37477 ft 367 kts 300°
2026-05-04 22:39 41.32229 -106.00926 37591 ft 367 kts 300°
2026-05-04 22:39 41.33792 -106.03616 37765 ft 367 kts 300°
2026-05-04 22:40 41.35355 -106.06301 37825 ft 367 kts 300°
2026-05-04 22:40 41.38467 -106.11639 37824 ft 366 kts 300°
2026-05-04 22:41 41.41587 -106.17008 37823 ft 366 kts 300°
2026-05-04 22:41 41.44701 -106.22380 37819 ft 366 kts 300°
2026-05-04 22:42 41.48162 -106.27481 37809 ft 376 kts 307°
2026-05-04 22:42 41.51862 -106.32387 37821 ft 377 kts 307°
2026-05-04 22:43 41.55601 -106.37350 37780 ft 377 kts 306°
2026-05-04 22:43 41.59308 -106.42275 37783 ft 378 kts 306°
2026-05-04 22:44 41.63035 -106.47245 37788 ft 378 kts 306°
2026-05-04 22:44 41.66735 -106.52187 37772 ft 378 kts 307°
2026-05-04 22:45 41.70455 -106.57176 37781 ft 378 kts 306°
2026-05-04 22:45 41.76040 -106.64647 37777 ft 378 kts 306°
2026-05-04 22:46 41.79759 -106.69647 37805 ft 378 kts 307°
2026-05-04 22:46 41.83457 -106.74633 37767 ft 379 kts 307°
2026-05-04 22:47 41.87183 -106.79660 37749 ft 379 kts 307°
2026-05-04 22:47 41.90909 -106.84700 37747 ft 380 kts 307°
2026-05-04 22:48 41.94611 -106.89713 37800 ft 380 kts 307°
2026-05-04 22:48 41.98343 -106.94764 37813 ft 380 kts 308°
2026-05-04 22:49 42.02087 -106.99838 37794 ft 381 kts 307°
2026-05-04 22:49 42.05807 -107.04911 37762 ft 382 kts 308°
2026-05-04 22:50 42.09555 -107.10025 37739 ft 383 kts 307°
2026-05-04 22:50 42.13289 -107.15114 37764 ft 384 kts 308°
2026-05-04 22:51 42.17056 -107.20253 37734 ft 386 kts 308°
2026-05-04 22:51 42.20818 -107.25410 37739 ft 386 kts 308°
2026-05-04 22:52 42.24589 -107.30598 37738 ft 387 kts 308°
2026-05-04 22:52 42.28359 -107.35799 37740 ft 387 kts 308°
2026-05-04 22:53 42.32108 -107.40969 37736 ft 388 kts 308°
2026-05-04 22:53 42.35895 -107.46189 37746 ft 389 kts 308°
2026-05-04 22:54 42.39685 -107.51422 37740 ft 389 kts 308°
2026-05-04 22:54 42.43456 -107.56655 37744 ft 390 kts 308°
2026-05-04 22:55 42.47260 -107.61930 37765 ft 391 kts 309°
2026-05-04 22:55 42.51061 -107.67218 37764 ft 392 kts 309°
2026-05-04 22:56 42.54848 -107.72496 37770 ft 392 kts 309°
2026-05-04 22:56 42.58670 -107.77826 37739 ft 393 kts 308°
2026-05-04 22:57 42.62457 -107.83113 37769 ft 393 kts 309°
2026-05-04 22:57 42.66282 -107.88470 37760 ft 394 kts 309°
2026-05-04 22:58 42.70072 -107.93798 37759 ft 394 kts 309°
2026-05-04 22:58 42.73892 -107.99171 37767 ft 394 kts 309°
2026-05-04 22:59 42.77708 -108.04541 37756 ft 394 kts 309°
2026-05-04 22:59 42.81503 -108.09901 37778 ft 395 kts 309°
2026-05-04 23:00 42.85324 -108.15296 37779 ft 395 kts 309°
2026-05-04 23:00 42.89136 -108.20695 37830 ft 395 kts 309°
2026-05-04 23:01 42.92928 -108.26079 37855 ft 395 kts 309°
2026-05-04 23:01 42.96737 -108.31508 37889 ft 395 kts 309°
2026-05-04 23:02 43.00544 -108.36932 37909 ft 396 kts 309°
2026-05-04 23:02 43.04334 -108.42344 37911 ft 396 kts 309°
2026-05-04 23:03 43.08099 -108.47851 37900 ft 394 kts 307°
2026-05-04 23:03 43.11043 -108.52623 37922 ft 393 kts 305°
2026-05-04 23:04 43.14493 -108.58446 37907 ft 393 kts 305°
2026-05-04 23:04 43.17936 -108.64207 37890 ft 393 kts 306°
2026-05-04 23:05 43.21439 -108.69992 37874 ft 393 kts 306°
2026-05-04 23:05 43.24922 -108.75733 37845 ft 393 kts 306°
2026-05-04 23:06 43.28416 -108.81519 37832 ft 393 kts 306°
2026-05-04 23:06 43.31910 -108.87320 37832 ft 394 kts 306°
2026-05-04 23:07 43.35404 -108.93128 37833 ft 394 kts 306°
2026-05-04 23:07 43.38896 -108.98949 37839 ft 395 kts 306°
2026-05-04 23:08 43.42363 -109.04723 37824 ft 393 kts 307°
2026-05-04 23:08 43.45856 -109.10557 37847 ft 393 kts 307°
2026-05-04 23:09 43.49323 -109.16379 37856 ft 393 kts 307°
2026-05-04 23:09 43.52778 -109.22182 37872 ft 393 kts 307°
2026-05-04 23:10 43.56252 -109.28020 37856 ft 394 kts 307°
2026-05-04 23:10 43.59728 -109.33872 37860 ft 394 kts 307°
2026-05-04 23:11 43.63192 -109.39719 37857 ft 394 kts 307°
2026-05-04 23:11 43.66664 -109.45612 37864 ft 395 kts 307°
2026-05-04 23:12 43.70139 -109.51509 37866 ft 395 kts 307°
2026-05-04 23:12 43.73598 -109.57382 37870 ft 397 kts 307°
2026-05-04 23:13 43.77087 -109.63305 37875 ft 396 kts 307°
2026-05-04 23:13 43.80573 -109.69240 37874 ft 396 kts 307°
2026-05-04 23:14 43.84045 -109.75185 37875 ft 396 kts 307°
2026-05-04 23:14 43.87493 -109.81113 37858 ft 396 kts 308°
2026-05-04 23:15 43.90961 -109.87066 37862 ft 397 kts 308°
2026-05-04 23:15 43.94444 -109.93062 37856 ft 398 kts 308°
2026-05-04 23:16 43.97908 -109.99027 37864 ft 399 kts 308°
2026-05-04 23:16 44.01396 -110.05055 37868 ft 400 kts 308°
2026-05-04 23:17 44.04880 -110.11049 37867 ft 401 kts 311°
2026-05-04 23:17 44.09236 -110.15924 37857 ft 405 kts 329°
2026-05-04 23:18 44.11736 -110.17797 37090 ft 412 kts 329°
2026-05-04 23:18 44.14263 -110.19678 36479 ft 409 kts 329°
2026-05-04 23:18 44.16739 -110.21517 36006 ft 405 kts 329°
2026-05-04 23:18 44.19211 -110.23355 35529 ft 401 kts 329°
2026-05-04 23:19 44.21655 -110.25175 35062 ft 396 kts 329°
2026-05-04 23:19 44.24074 -110.26979 34590 ft 393 kts 329°
2026-05-04 23:19 44.26483 -110.28784 34116 ft 389 kts 329°
2026-05-04 23:19 44.28855 -110.30565 33608 ft 386 kts 329°
2026-05-04 23:20 44.31180 -110.32311 33152 ft 381 kts 329°
2026-05-04 23:20 44.33509 -110.34061 32706 ft 376 kts 329°
2026-05-04 23:20 44.35810 -110.35791 32257 ft 372 kts 329°
2026-05-04 23:20 44.38086 -110.37504 31808 ft 368 kts 329°
2026-05-04 23:21 44.40306 -110.39174 31391 ft 364 kts 329°
2026-05-04 23:21 44.42523 -110.40842 30963 ft 360 kts 328°
2026-05-04 23:21 44.44722 -110.42503 30548 ft 357 kts 328°
2026-05-04 23:21 44.46892 -110.44146 30152 ft 353 kts 328°
2026-05-04 23:22 44.49056 -110.45787 29710 ft 350 kts 328°
2026-05-04 23:22 44.51185 -110.47397 29320 ft 345 kts 329°
2026-05-04 23:22 44.53266 -110.48969 28937 ft 341 kts 329°
2026-05-04 23:22 44.55343 -110.50539 28574 ft 336 kts 329°
2026-05-04 23:23 44.57382 -110.52084 28212 ft 331 kts 329°
2026-05-04 23:23 44.59397 -110.53615 27850 ft 326 kts 329°
2026-05-04 23:23 44.61385 -110.55131 27483 ft 322 kts 329°
2026-05-04 23:23 44.63340 -110.56624 27123 ft 318 kts 329°
2026-05-04 23:24 44.65255 -110.58084 26774 ft 316 kts 329°
2026-05-04 23:24 44.67180 -110.59549 26400 ft 314 kts 329°
2026-05-04 23:24 44.69101 -110.61015 26040 ft 313 kts 330°
2026-05-04 23:24 44.71016 -110.62477 25657 ft 312 kts 330°
2026-05-04 23:25 44.72925 -110.63934 25276 ft 311 kts 330°
2026-05-04 23:25 44.74826 -110.65387 24901 ft 309 kts 330°
2026-05-04 23:25 44.76692 -110.66812 24508 ft 308 kts 330°
2026-05-04 23:25 44.78573 -110.68249 24114 ft 307 kts 330°
2026-05-04 23:26 44.80450 -110.69682 23719 ft 306 kts 330°
2026-05-04 23:26 44.82317 -110.71108 23288 ft 305 kts 330°
2026-05-04 23:26 44.84178 -110.72532 22882 ft 303 kts 330°
2026-05-04 23:26 44.86022 -110.73948 22498 ft 300 kts 330°
2026-05-04 23:27 44.87835 -110.75346 22127 ft 298 kts 330°
2026-05-04 23:27 44.89654 -110.76749 21760 ft 297 kts 329°
2026-05-04 23:27 44.91465 -110.78143 21393 ft 295 kts 330°
2026-05-04 23:27 44.93263 -110.79524 21026 ft 293 kts 330°
2026-05-04 23:28 44.95049 -110.80898 20668 ft 292 kts 329°
2026-05-04 23:28 44.96827 -110.82268 20304 ft 290 kts 329°
2026-05-04 23:28 44.98577 -110.83617 19949 ft 289 kts 329°
2026-05-04 23:28 45.00338 -110.84974 19592 ft 288 kts 329°
2026-05-04 23:29 45.02099 -110.86336 19243 ft 289 kts 329°
2026-05-04 23:29 45.03874 -110.87707 18968 ft 288 kts 329°
2026-05-04 23:29 45.05619 -110.89062 18545 ft 289 kts 329°
2026-05-04 23:29 45.07385 -110.90432 18167 ft 290 kts 329°
2026-05-04 23:30 45.09151 -110.91798 17783 ft 287 kts 329°
2026-05-04 23:30 45.10890 -110.93142 17432 ft 281 kts 329°
2026-05-04 23:30 45.12593 -110.94460 17113 ft 278 kts 329°
2026-05-04 23:30 45.14288 -110.95813 16787 ft 283 kts 327°
2026-05-04 23:31 45.15973 -110.97294 16489 ft 292 kts 325°
2026-05-04 23:31 45.17686 -110.98862 16192 ft 294 kts 325°
2026-05-04 23:31 45.19405 -111.00453 15883 ft 293 kts 325°
2026-05-04 23:31 45.21111 -111.02032 15579 ft 292 kts 325°
2026-05-04 23:32 45.22809 -111.03593 15267 ft 289 kts 325°
2026-05-04 23:32 45.24495 -111.05133 14976 ft 287 kts 325°
2026-05-04 23:32 45.26174 -111.06662 14674 ft 286 kts 325°
2026-05-04 23:32 45.27844 -111.08185 14379 ft 285 kts 325°
2026-05-04 23:33 45.29486 -111.09684 14075 ft 284 kts 325°
2026-05-04 23:33 45.31144 -111.11198 13790 ft 281 kts 326°
2026-05-04 23:33 45.32768 -111.12680 13662 ft 273 kts 326°
2026-05-04 23:33 45.34334 -111.14105 13343 ft 263 kts 326°
2026-05-04 23:34 45.35867 -111.15503 12921 ft 260 kts 326°
2026-05-04 23:34 45.37385 -111.16889 12626 ft 259 kts 326°
2026-05-04 23:34 45.38895 -111.18266 12336 ft 256 kts 327°
2026-05-04 23:34 45.40502 -111.19277 12070 ft 257 kts 344°
2026-05-04 23:35 45.42283 -111.19535 11809 ft 258 kts
2026-05-04 23:35 45.44063 -111.19009 11584 ft 262 kts 13°
2026-05-04 23:35 45.45804 -111.18267 11345 ft 261 kts 14°
2026-05-04 23:35 45.47533 -111.17536 11112 ft 257 kts 13°
2026-05-04 23:36 45.49211 -111.16833 10874 ft 247 kts 14°
2026-05-04 23:36 45.50810 -111.16162 10675 ft 232 kts 13°
2026-05-04 23:36 45.52311 -111.15479 10394 ft 222 kts 17°
2026-05-04 23:36 45.53753 -111.14716 9995 ft 220 kts 19°
2026-05-04 23:37 45.55150 -111.13945 9598 ft 216 kts 20°
2026-05-04 23:37 45.56536 -111.13171 9221 ft 211 kts 20°
2026-05-04 23:37 45.57891 -111.12419 8891 ft 205 kts 20°
2026-05-04 23:37 45.59184 -111.11702 8646 ft 193 kts 20°
2026-05-04 23:38 45.60403 -111.11030 8365 ft 183 kts 20°
2026-05-04 23:38 45.61568 -111.10389 8101 ft 174 kts 21°
2026-05-04 23:38 45.62677 -111.09779 7863 ft 168 kts 21°
2026-05-04 23:38 45.63736 -111.09196 7658 ft 163 kts 21°
2026-05-04 23:39 45.64774 -111.08629 7440 ft 156 kts 21°
2026-05-04 23:39 45.65768 -111.08089 7221 ft 150 kts 21°
2026-05-04 23:39 45.66750 -111.07554 7018 ft 151 kts 21°
2026-05-04 23:39 45.67713 -111.07026 6784 ft 150 kts 21°
2026-05-04 23:40 45.68680 -111.06525 6588 ft 148 kts 15°
2026-05-04 23:40 45.69694 -111.06322 6365 ft 147 kts
2026-05-04 23:40 45.70707 -111.06485 6170 ft 147 kts 346°
2026-05-04 23:40 45.71656 -111.07008 5977 ft 146 kts 332°
2026-05-04 23:41 45.72487 -111.07854 5789 ft 147 kts 318°
2026-05-04 23:41 45.73222 -111.08885 5614 ft 147 kts 317°
2026-05-04 23:41 45.73947 -111.09896 5361 ft 147 kts 317°
2026-05-04 23:41 45.74668 -111.10891 5108 ft 142 kts 319°
2026-05-04 23:42 45.75378 -111.11868 4919 ft 143 kts 317°
2026-05-04 23:42 45.76085 -111.12848 4749 ft 143 kts 318°
2026-05-04 23:42 45.76781 -111.13818 4565 ft 140 kts 317°
2026-05-04 23:42 45.77460 -111.14752 4460 ft 122 kts 316°
2026-05-04 23:43 45.77847 -111.15314 4454 ft 35 kts 317°
2026-05-04 23:43 45.77926 -111.15527 4453 ft 24 kts 225°
2026-05-04 23:43 45.77842 -111.15705 4456 ft 19 kts 276°
2026-05-04 23:43 45.77807 -111.15811 4458 ft 7 kts 267°
2026-05-04 23:44 45.77850 -111.15879 4457 ft 11 kts 316°
2026-05-04 23:44 45.77904 -111.15954 4456 ft 8 kts 316°
2026-05-04 23:44 45.77905 -111.16002 4457 ft 4 kts 229°
2026-05-04 23:44 45.77895 -111.16019 4457 ft 1 kts 229°
2026-05-04 23:45 45.77890 -111.16027 4457 ft 3 kts 229°
2026-05-04 23:45 45.77883 -111.16038 4457 ft 0 kts 229°